Philip, SD

4:47 PM MST on February 27, 2017 (GMT -0700)
Philip

Weather History for KPHP - October, 2013

Change the Weather History Date:

Saturday, October 19, 2013

  Actual Average Record
Temperature  
Mean Temperature 52 °F 47 °F  
Max Temperature 64 °F 62 °F 89 °F (1953)
Min Temperature 40 °F 33 °F 10 °F (1960)
Degree Days  
Heating Degree Days 13 18  
Month to date heating degree days 252 267  
Since 1 July heating degree days 315 453  
Cooling Degree Days 0 0  
Month to date cooling degree days 0 0  
Year to date cooling degree days 945 814  
Growing Degree Days 2 (Base 50)    
Moisture  
Dew Point 34 °F    
Average Humidity 52    
Maximum Humidity 73    
Minimum Humidity 31    
Precipitation  
Precipitation 0.00 in 0.05 in 0.43 in (1983)
Month to date precipitation 3.57 0.96  
Year to date precipitation 14.56 15.83  
Sea Level Pressure  
Sea Level Pressure 29.81 in    
Wind  
Wind Speed 11 mph (West)    
Max Wind Speed 20 mph    
Max Gust Speed 25 mph    
Visibility 10 miles    
Events      
T = Trace of Precipitation, MM = Missing Value Source: NWS Daily Summary

Daily Weather History Graph

Daily Weather History Graph

Search for Another Location

Airport or City:

Trip Planner

Search our weather history database for the weather conditions in past years. The results will help you decide how hot, cold, wet, or windy it might be!

Date:

Astronomy

Oct. 19, 2013 Rise Set
Actual Time 7:06 AM MDT 5:55 PM MDT
Civil Twilight 6:37 AM MDT 6:24 PM MDT
Nautical Twilight 6:03 AM MDT 6:58 PM MDT
Astronomical Twilight 5:30 AM MDT 7:31 PM MDT
Moon 6:21 PM MDT (10/19) 7:48 AM MDT (10/19)
Length of Visible Light 11h 47m
Length of Day
10h 49m
Full, 99% of the Moon is Illuminated
Oct 19
Full
Oct 26
Last Quarter
Nov 3
New
Nov 9
First Quarter
Nov 17
Full

Hourly Weather History & Observations

Time (MDT) Temp. Windchill Dew Point Humidity Pressure Visibility Wind Dir Wind Speed Gust Speed Precip Events Conditions
12:55 AM 39.9 °F 34.5 °F 30.0 °F 68% 29.91 in 10.0 mi WSW 8.1 mph - N/A   Overcast
1:55 AM 42.1 °F 35.2 °F 30.0 °F 62% 29.88 in 10.0 mi WSW 12.7 mph - N/A   Overcast
2:55 AM 42.1 °F 35.7 °F 30.9 °F 65% 29.87 in 10.0 mi WSW 11.5 mph - N/A   Overcast
3:55 AM 42.1 °F 35.7 °F 30.9 °F 65% 29.85 in 10.0 mi WSW 11.5 mph - N/A   Overcast
4:55 AM 42.1 °F 37.1 °F 32.0 °F 67% 29.85 in 10.0 mi West 8.1 mph - N/A   Overcast
5:55 AM 42.1 °F 37.7 °F 32.0 °F 67% 29.86 in 10.0 mi WNW 6.9 mph - N/A   Overcast
6:55 AM 41.0 °F 37.1 °F 33.1 °F 73% 29.86 in 10.0 mi West 5.8 mph - N/A   Overcast
7:55 AM 42.1 °F 37.7 °F 33.1 °F 70% 29.88 in 10.0 mi WNW 6.9 mph - N/A   Overcast
8:55 AM 46.9 °F - 34.0 °F 61% 29.89 in 10.0 mi North - - N/A   Partly Cloudy
9:55 AM 52.0 °F - 34.0 °F 50% 29.88 in 10.0 mi NW 12.7 mph - N/A   Scattered Clouds
10:55 AM 55.9 °F - 35.1 °F 45% 29.86 in 10.0 mi WNW 13.8 mph - N/A   Scattered Clouds
11:55 AM 57.9 °F - 33.1 °F 39% 29.84 in 10.0 mi West 13.8 mph 20.7 mph N/A   Clear
12:55 PM 59.0 °F - 33.1 °F 38% 29.81 in 10.0 mi West 16.1 mph 21.9 mph N/A   Clear
1:55 PM 62.1 °F - 34.0 °F 35% 29.78 in 10.0 mi West 12.7 mph 20.7 mph N/A   Clear
2:55 PM 63.0 °F - 33.1 °F 33% 29.76 in 10.0 mi WNW 16.1 mph - N/A   Clear
3:55 PM 64.0 °F - 34.0 °F 33% 29.75 in 10.0 mi NW 18.4 mph 21.9 mph N/A   Clear
4:55 PM 61.0 °F - 35.1 °F 38% 29.74 in 10.0 mi WNW 10.4 mph - N/A   Clear
5:55 PM 55.0 °F - 37.9 °F 53% 29.74 in 10.0 mi West 5.8 mph - N/A   Overcast
6:55 PM 53.1 °F - 37.9 °F 57% 29.75 in 10.0 mi WNW 5.8 mph - N/A   Mostly Cloudy
7:55 PM 52.0 °F - 37.0 °F 57% 29.75 in 10.0 mi WNW 5.8 mph - N/A   Overcast
8:55 PM 51.1 °F - 37.9 °F 61% 29.75 in 10.0 mi West 6.9 mph - N/A   Overcast
9:55 PM 51.1 °F - 37.9 °F 61% 29.74 in 10.0 mi West 5.8 mph - N/A   Overcast
10:55 PM 48.9 °F - 39.0 °F 69% 29.73 in 10.0 mi WSW 5.8 mph - N/A   Overcast
11:55 PM 52.0 °F - 37.0 °F 57% 29.72 in 10.0 mi WNW 11.5 mph - N/A   Overcast